(16468) = 1990 HW1

Discovered at Siding Spring on 1990-04-27 by R. H. McNaught.

Orbit

Orbit type: Main Belt

Note: WebGL enabled browser required.

epoch2024-03-31.0
epoch JD2460400.5
perihelion date2021-11-20.58814
perihelion JD2459539.08814
argument of perihelion (°)308.12034
ascending node (°)135.48337
inclination (°)15.29738
eccentricity0.0592027
perihelion distance (AU)2.4061128
Tisserand w.r.t. Jupiter3.4
ΔV w.r.t. Earth (km/sec)10.9
semimajor axis (AU)2.5575251
mean anomaly (°)207.57968
mean daily motion (°/day)0.24097610
aphelion distance (AU)2.709
period (years)4.09
P-vector [x]0.09186186
P-vector [y]0.97609763
P-vector [z]0.19696401
Q-vector [x]-0.97844047
Q-vector [y]0.05173621
Q-vector [z]0.19994402
absolute magnitude13.76
phase slope0.15
uncertainty0
referenceMPEC 2024-D99
observations used2786
oppositions21
arc length (days)12155
first opposition used1990
last opposition used2023
residual rms (arc-secs)0.61
perturbers coarse indicatorM-v
perturbers precise indicator003Ek
first observation date used1990-04-27.0
last observation date used2023-08-07.0
computer nameMPCLINUX
JD of orbit computation2456819.392058
perihelion JD uncertainty (days)1.8440E-04
argument of perihelion uncertainty (°)4.7347E-05
ascending node uncertainty (°)1.1920E-05
inclination uncertainty (°)5.2848E-06
eccentricity uncertainty 3.5190E-08
perihelion distance uncertainty (AU)9.3085E-08
Minimum Orbit Intersection Distances (in AU)
for orbit epoch: 2460400.5, reference: E2024-D99
Mercury2.11045
Venus1.70803
Earth1.44752
Mars0.80607
Jupiter2.40789
Saturn6.6695
Uranus15.9292
Neptune27.3888

Observations

2827 total observations over interval: 1990 04 27.48676 – 2023 08 07.776469
These data are available for download (format description).

Date (UT) J2000 RA J2000 Dec Magn Location Ref
1990 04 27.48676 12 21 43.72 +18 16 18.4 17.5 V 413 – Siding Spring Observatory MPC 16507
1990 04 27.54926 12 21 41.99 +18 16 21.2   413 – Siding Spring Observatory MPC 16507
1990 04 29.48619 12 20 51.73 +18 16 55.4   413 – Siding Spring Observatory MPC 16507
1990 05 26.41212 12 18 21.99 +16 54 53.7 18 V 413 – Siding Spring Observatory MPC 16507
1990 05 26.45409 12 18 22.35 +16 54 44.5   413 – Siding Spring Observatory MPC 16507
1998 01 31.74223 11 33 02.50 +11 30 21.7 17   411 – Oizumi MPS 392
1998 01 31.76118 11 33 02.22 +11 30 32.7   411 – Oizumi MPS 392
1998 02 01.73203 11 32 47.29 +11 40 29.9   411 – Oizumi MPS 392
1998 02 01.74113 11 32 47.14 +11 40 36.1   411 – Oizumi MPS 392
1998 02 26.30523 11 19 12.95 +16 24 19.0 16.8 R 699 – Lowell Observatory-LONEOS MPS 514
1998 02 26.31197 11 19 12.63 +16 24 24.1 16.5 R 699 – Lowell Observatory-LONEOS MPS 514
1998 02 26.31873 11 19 12.27 +16 24 29.2 16.5 R 699 – Lowell Observatory-LONEOS MPS 514
1998 02 27.44083 11 18 20.03 +16 37 38.0 17.4 V 566 – Haleakala-NEAT/GEODSS MPS 514
1998 02 27.45113 11 18 19.54 +16 37 45.2 17.4 V 566 – Haleakala-NEAT/GEODSS MPS 514
1998 02 27.46171 11 18 19.00 +16 37 52.8 17.3 V 566 – Haleakala-NEAT/GEODSS MPS 514
1998 03 03.20614 11 15 20.59 +17 20 41.9 16.6 R 699 – Lowell Observatory-LONEOS MPS 635
1998 03 03.21423 11 15 20.15 +17 20 47.5 16.6 R 699 – Lowell Observatory-LONEOS MPS 635
1998 03 03.22233 11 15 19.74 +17 20 53.5 16.7 R 699 – Lowell Observatory-LONEOS MPS 635
1998 03 24.14709 10 59 06.78 +20 33 11.5 17.4   704 – Lincoln Laboratory ETS, New Mexico MPS 635
1998 03 24.16743 10 59 05.97 +20 33 20.1   704 – Lincoln Laboratory ETS, New Mexico MPS 635
1998 03 24.18769 10 59 05.11 +20 33 27.6 18.2   704 – Lincoln Laboratory ETS, New Mexico MPS 635
1998 03 24.20836 10 59 04.18 +20 33 36.0 18.2   704 – Lincoln Laboratory ETS, New Mexico MPS 635
1998 03 25.12600 10 58 28.19 +20 39 36.1   704 – Lincoln Laboratory ETS, New Mexico MPS 635
1998 03 25.14629 10 58 27.37 +20 39 43.9   704 – Lincoln Laboratory ETS, New Mexico MPS 635
1998 03 25.16678 10 58 26.61 +20 39 52.6   704 – Lincoln Laboratory ETS, New Mexico MPS 635
1998 03 25.18714 10 58 25.72 +20 40 01.4   704 – Lincoln Laboratory ETS, New Mexico MPS 635
1998 03 25.20749 10 58 24.86 +20 40 07.8 18.6   704 – Lincoln Laboratory ETS, New Mexico MPS 635
1999 07 13.17540 17 51 10.24 -08 09 29.2 18.1   704 – Lincoln Laboratory ETS, New Mexico MPS 5491
1999 07 13.18776 17 51 09.66 -08 09 33.9 17.8   704 – Lincoln Laboratory ETS, New Mexico MPS 5491
1999 07 13.20007 17 51 09.04 -08 09 39.5 18.3   704 – Lincoln Laboratory ETS, New Mexico MPS 5491
1999 07 13.21237 17 51 08.49 -08 09 43.5 18.1   704 – Lincoln Laboratory ETS, New Mexico MPS 5491
1999 07 13.22467 17 51 07.92 -08 09 48.3 17.7   704 – Lincoln Laboratory ETS, New Mexico MPS 5491
1999 07 22.16774 17 45 05.75 -09 10 31.9 18.5   704 – Lincoln Laboratory ETS, New Mexico MPS 5491
1999 07 22.18036 17 45 05.30 -09 10 37.6 18.4   704 – Lincoln Laboratory ETS, New Mexico MPS 5491
1999 07 22.19304 17 45 04.78 -09 10 43.1 18.4   704 – Lincoln Laboratory ETS, New Mexico MPS 5491
1999 07 22.20573 17 45 04.39 -09 10 48.0 18.3   704 – Lincoln Laboratory ETS, New Mexico MPS 5491
1999 07 22.21842 17 45 03.94 -09 10 53.5 18.5   704 – Lincoln Laboratory ETS, New Mexico MPS 5491
2000 08 04.50458 01 56 13.14 -03 00 03.6 19.1   608 – Haleakala-AMOS MPS 17317
2000 08 04.51538 01 56 13.59 -03 00 06.5 18.9   608 – Haleakala-AMOS MPS 17317
2000 08 04.52614 01 56 14.13 -03 00 09.7 19.0   608 – Haleakala-AMOS MPS 17317
2000 08 08.37793 01 58 58.66 -03 18 34.1 18.0   704 – Lincoln Laboratory ETS, New Mexico MPS 17317
2000 08 08.39200 01 58 59.21 -03 18 38.3 18.0   704 – Lincoln Laboratory ETS, New Mexico MPS 17317
2000 08 08.40612 01 58 59.78 -03 18 41.9 17.8   704 – Lincoln Laboratory ETS, New Mexico MPS 17317
2000 08 08.42023 01 59 00.31 -03 18 47.3 17.3   704 – Lincoln Laboratory ETS, New Mexico MPS 17317
2000 08 08.43437 01 59 00.90 -03 18 50.9 18.0   704 – Lincoln Laboratory ETS, New Mexico MPS 17317
2000 08 28.37698 02 08 04.43 -05 35 49.2 17.8   704 – Lincoln Laboratory ETS, New Mexico MPS 17317
2000 08 28.39536 02 08 04.63 -05 35 57.9 19.3   704 – Lincoln Laboratory ETS, New Mexico MPS 17317
2000 08 28.41185 02 08 04.83 -05 36 07.3 18.4   704 – Lincoln Laboratory ETS, New Mexico MPS 17317
2000 08 28.42872 02 08 05.03 -05 36 15.4 18.4   704 – Lincoln Laboratory ETS, New Mexico MPS 17317
2000 08 28.44381 02 08 05.16 -05 36 23.0 18.6   704 – Lincoln Laboratory ETS, New Mexico MPS 17317
2000 09 10.42011 02 08 35.72 -07 38 15.5 17.1 R 699 – Lowell Observatory-LONEOS MPS 30602
2000 09 10.43943 02 08 35.52 -07 38 27.5   699 – Lowell Observatory-LONEOS MPS 30602
2000 09 10.45870 02 08 35.34 -07 38 39.0   699 – Lowell Observatory-LONEOS MPS 30602
2000 09 10.47801 02 08 35.15 -07 38 50.6   699 – Lowell Observatory-LONEOS MPS 30602
2000 09 28.34815 02 01 58.19 -10 45 21.2 16.9 R 699 – Lowell Observatory-LONEOS MPS 27368
2000 09 28.36671 02 01 57.46 -10 45 32.8   699 – Lowell Observatory-LONEOS MPS 27368
2000 09 28.38531 02 01 56.81 -10 45 44.3   699 – Lowell Observatory-LONEOS MPS 27368
2000 09 28.40392 02 01 56.12 -10 45 55.5   699 – Lowell Observatory-LONEOS MPS 27368
2000 10 05.31519 01 57 23.94 -11 54 28.0 18.2   704 – Lincoln Laboratory ETS, New Mexico MPS 20565
2000 10 05.33042 01 57 23.26 -11 54 36.5 18.1   704 – Lincoln Laboratory ETS, New Mexico MPS 20565
2000 10 05.34563 01 57 22.59 -11 54 45.1 18.1   704 – Lincoln Laboratory ETS, New Mexico MPS 20565
2000 10 05.36082 01 57 21.89 -11 54 53.0 18.2   704 – Lincoln Laboratory ETS, New Mexico MPS 20565
2000 10 27.22920 01 39 41.22 -14 29 23.9 17.1   704 – Lincoln Laboratory ETS, New Mexico MPS 21975
2000 10 27.24321 01 39 40.55 -14 29 27.3 17.6   704 – Lincoln Laboratory ETS, New Mexico MPS 21975
2000 10 27.25833 01 39 39.73 -14 29 31.0 17.9   704 – Lincoln Laboratory ETS, New Mexico MPS 21975
2000 10 27.27235 01 39 39.07 -14 29 34.6 17.8   704 – Lincoln Laboratory ETS, New Mexico MPS 21975
2000 10 27.28787 01 39 38.28 -14 29 38.2 17.3   704 – Lincoln Laboratory ETS, New Mexico MPS 21975
2000 11 18.25243 01 25 24.26 -14 42 29.3 18.0   704 – Lincoln Laboratory ETS, New Mexico MPS 23360
2000 11 18.26785 01 25 23.75 -14 42 27.8 18.1   704 – Lincoln Laboratory ETS, New Mexico MPS 23360
2000 11 18.28327 01 25 23.30 -14 42 24.3 18.1   704 – Lincoln Laboratory ETS, New Mexico MPS 23360
2000 12 22.07546 01 25 49.15 -11 00 48.1 17.9   704 – Lincoln Laboratory ETS, New Mexico MPS 24630
2000 12 22.09092 01 25 49.52 -11 00 39.1 18.0   704 – Lincoln Laboratory ETS, New Mexico MPS 24630
2000 12 22.10644 01 25 49.91 -11 00 30.0 18.3   704 – Lincoln Laboratory ETS, New Mexico MPS 24630
2000 12 22.12193 01 25 50.31 -11 00 20.8 18.2   704 – Lincoln Laboratory ETS, New Mexico MPS 24630
2000 12 22.13737 01 25 50.65 -11 00 12.4 17.5   704 – Lincoln Laboratory ETS, New Mexico MPS 24630
2000 12 23.07516 01 26 16.08 -10 51 20.4 17.5   704 – Lincoln Laboratory ETS, New Mexico MPS 24630
2000 12 23.09009 01 26 16.39 -10 51 11.1 18.2   704 – Lincoln Laboratory ETS, New Mexico MPS 24630
2000 12 23.10672 01 26 16.89 -10 51 02.5 18.4   704 – Lincoln Laboratory ETS, New Mexico MPS 24630
2000 12 23.12152 01 26 17.23 -10 50 53.1 18.5   704 – Lincoln Laboratory ETS, New Mexico MPS 24630
2000 12 23.13699 01 26 17.69 -10 50 44.8 18.3   704 – Lincoln Laboratory ETS, New Mexico MPS 24630
2001 10 23.46973 09 40 44.22 +10 20 10.3 18.5 R 699 – Lowell Observatory-LONEOS MPS 39889
2001 10 23.47051 09 40 44.12 +10 20 09.9 18.6 R 699 – Lowell Observatory-LONEOS MPS 39889
2001 10 23.47917 09 40 44.93 +10 20 08.2   699 – Lowell Observatory-LONEOS MPS 39889
2001 10 23.47996 09 40 44.91 +10 20 07.2   699 – Lowell Observatory-LONEOS MPS 39889
2001 10 23.48862 09 40 45.76 +10 20 04.8   699 – Lowell Observatory-LONEOS MPS 39889
2001 10 23.48940 09 40 45.78 +10 20 04.8   699 – Lowell Observatory-LONEOS MPS 39889
2001 10 23.49809 09 40 46.62 +10 20 02.4   699 – Lowell Observatory-LONEOS MPS 39889
2001 10 23.49887 09 40 46.63 +10 20 01.5   699 – Lowell Observatory-LONEOS MPS 39889
2001 12 11.46569 10 36 10.52 +08 22 35.2 18.4   704 – Lincoln Laboratory ETS, New Mexico MPS 45988
